Regional Weather Roundup
Issued by NWS Wakefield, VA

Home | Current Version | Previous Version | Text Only | Print | Product List | Glossary Off
Versions: 1 2 3 4 5 6 7 8 9 10 11 12 13 14 15 16 17 18 19 20 21 22 23 24 25 26 27

000
ASUS41 KAKQ 170710
RWRAKQ

REGIONAL WEATHER ROUNDUP
NATIONAL WEATHER SERVICE WAKEFIELD VA
300 AM EDT THU APR 17 2014

Note: "fair" indicates few or no clouds below 12,000 feet with no
significant weather and/or obstructions to visibility. * = Denotes
station may not report precipitation (e.g., rain,snow,etc.),
thunder or fog.

VAZ042-051-052>054-056-170800-
NORTHERN VIRGINIA

CITY           SKY/WX    TMP DP  RH WIND       PRES   REMARKS
WASH NATIONAL  CLEAR     41  27  57 NE6       30.56S
DULLES         CLEAR     30  24  78 CALM      30.54F
FORT BELVOIR   CLEAR     31  28  89 CALM      30.56S
QUANTICO       CLEAR     35  29  78 NW8       30.56F
FREDERICKSBRG* CLEAR     34  30  86 CALM      30.54S
STAFFORD*      CLEAR     30  30 100 CALM      30.58S
WARRENTON      CLEAR     29  29 100 CALM      30.53F
CULPEPER*      CLEAR     32  25  74 CALM      30.55S
MANASSAS*      CLEAR     28  27  93 CALM      30.55S
LEESBURG*      CLEAR     32  28  86 CALM      30.56S
WINCHESTER     CLEAR     32  19  59 CALM      30.52F
$$

VAZ048-049-060>072-079>083-170800-
CENTRAL AND SOUTH CENTRAL VIRGINIA...AND NORTH CENTRAL NORTH CAROLINA

CITY           SKY/WX    TMP DP  RH WIND       PRES   REMARKS
RICHMOND       CLEAR     36  27  69 NE7       30.51F
CHESTERFIELD*  NOT AVBL
HANOVER        CLEAR     30  26  85 CALM      30.53F
TAPPAHANNOCK*  CLEAR     30  27  88 CALM      30.53S
CHARLOTTSVILLE CLEAR     32  20  61 N3        30.52F
ORANGE*        CLEAR     32  28  86 CALM      30.55R
LOUISA*        CLEAR     28  25  86 CALM      30.51S
FARMVILLE*     CLEAR     30  25  80 CALM      30.50S
SOUTH HILL*    CLEAR     34  30  86 CALM      30.55S
ROANOKE RAPIDS SUNNY     34  32  93 CALM      30.50R
RALEIGH        CLEAR     36  28  73 NE5       30.48R
$$

VAZ088>098-170800-
SOUTHEAST VIRGINIA

CITY           SKY/WX    TMP DP  RH WIND       PRES   REMARKS
NORFOLK        CLEAR     43  30  60 NE13      30.49S
VIRGINIA BEACH PTCLDY    42  31  64 NE12      30.49R
NORFOLK NAVAL  PTCLDY    43  30  60 NE15      30.51S
WEST POINT*    CLEAR     33  30  87 CALM      30.54S
NEWPORT NEWS   CLEAR     43  32  65 NE7       30.50F
LANGLEY AFB    CLEAR     42  34  74 E12       30.51S
FORT EUSTIS    CLEAR     39  34  81 NE2       30.48F
WILLIAMSBURG*    N/A     36  34  93 CALM      30.52S
FRANKLIN*      CLEAR     36 N/A N/A CALM      30.50S
WAKEFIELD      CLEAR     31  28  89 CALM      30.51S
$$

VAZ020-022-025-037-045-170800-
WESTERN AND SOUTHWEST VIRGINIA

CITY           SKY/WX    TMP DP  RH WIND       PRES   REMARKS
STAUNTON*      CLEAR     28  23  80 CALM      30.51F
HOT SPRINGS VA CLEAR     28  16  59 SE10      30.41S WCI  19
LYNCHBURG      CLEAR     36  23  59 CALM      30.51R
DANVILLE       CLEAR     34  25  69 NE3       30.49S
MARTINSVILLE   CLEAR     30  27  90 CALM      30.50S
ROANOKE        CLEAR     34  22  61 CALM      30.50R
BLACKSBURG     CLEAR     30  21  69 CALM      30.46S
DUBLIN*        CLEAR     33  20  59 E3        30.45S
MARION*        CLEAR     34  21  57 NE10      30.43R
HILLSVILLE*    CLEAR     32  16  51 E3        30.43F
RICHLANDS*     SUNNY     41  21  45 SE15G22   30.33R
WISE*          CLEAR     41  18  38 S10G17    30.33R
ABINGDON*      CLEAR     41  21  44 E10       30.36R
$$

MDZ021>025-VAZ099-100-170800-
SOUTHERN MARYLAND AND THE DELMARVA PENINSULA

CITY           SKY/WX    TMP DP  RH WIND       PRES   REMARKS
PATUXENT RIVER CLEAR     40  29  64 E9        30.54S
BAY BRIDGE APT CLEAR     36  30  80 CALM      30.56S
LEONARDTOWN    CLEAR     32  28  86 CALM      30.55S
DOVER          CLEAR     38  31  75 NE8       30.55S HAZE
GEORGETOWN     CLEAR     34  29  82 CALM      30.54S
EASTON         CLEAR     35  33  94 CALM      30.59R
CAMBRIDGE      CLEAR     34  32  93 CALM      30.54S
SALISBURY      CLEAR     34  30  85 CALM      30.53S
OCEAN CITY     CLEAR     43  29  57 E12       30.53S
WALLOPS ISLAND CLEAR     43  29  57 E14       30.52F
ACCOMACK*      NOT AVBL
$$

NCZ012>017-030>032-170800-
EASTERN NORTH CAROLINA

CITY           SKY/WX    TMP DP  RH WIND       PRES   REMARKS
ELIZABETH CITY CLEAR     43  32  65 N13       30.46F
AHOSKIE*       CLEAR     34  32  92 CALM      30.50S
EDENTON*       CLEAR     36  32  87 N5        30.46F
CURRITUCK*     CLEAR     44  30  59 NE16G22   30.47F
KILL DEVIL HLS PTCLDY    44  35  72 N9G23     30.42F
MANTEO         PTCLDY    44  36  73 NE18G24   30.43F
CAPE HATTERAS  CLOUDY    47  40  76 NE13G24   30.39S
GOLDSBORO      CLEAR     38  31  76 N7        30.44F
WASHINGTON     CLEAR     38  33  85 N6        30.45F
GREENVILLE     CLEAR     34  32  93 N6        30.45F
NEW BERN       CLEAR     42  33  70 N10       30.44F
WILMINGTON     CLEAR     40  30  67 N10       30.41F
$$

VAZ048-170800-
ELSEWHERE

CITY           SKY/WX    TMP DP  RH WIND       PRES   REMARKS
HARRISBURG PA  MOCLDY    36  19  50 N3        30.57S
BALTIMORE      CLEAR     33  26  75 CALM      30.55S
ANNAPOLIS      CLEAR     42  32  67 CALM      30.55S
ANDREWS AFB    CLEAR     35  24  63 NE2       30.55R
WILMINGTON DE  CLEAR     37  20  50 NE8       30.58S
PHILADELPHIA   PTCLDY    38  21  50 NE7       30.59S
WILDWOOD NJ*   CLEAR     34  27  75 N7        30.55F
ATLANTIC CITY  CLEAR     29  25  85 NE3       30.56F
HENDERSON NC   CLEAR     34  29  82 CALM      30.48F
GREENSBORO     CLEAR     38  24  57 NE5       30.45R
ROCKY MOUNT      N/A    N/A N/A N/A MISG      30.48F
FAYETTEVILLE   CLEAR     36  31  82 N6        30.45S
CHARLOTTE      CLEAR     42  29  59 NE6       30.44S
$$

VAZ100-170800-
MARINE

STATION/POSITION TIME  TEMP    WIND        PRES    WAVE   SWELL
                       AIR SEA DIR/SP/G            HT/PER HT/PER
                 (UTC) (F)     (DEG/KT/KT) (MB)    (FT/S) (FT/S)
44066 TX TWR #4  0700   41 44   50/ 17/ 21 1034.4S   5/10   3/10
CAPE MAY NJ      0700   38 53   60/  3/  5 1033.9F
LEWES DE         0700   44 48   80/ 16/ 18 1033.3R
15NM E FENWICK I 0700   43 45              1033.5F   5/10
OCEAN-CITY-INLET 0700   43 45   80/  6/ 11 1033.4R
WACHAPREAGUE VA  0700   43 54   60/ 12/ 17 1032.6F
THOMAS POINT MD  0700   43 52  100/  7/  7 1035.2R
GOOSES REEF MD   0700   44     120/ 10/ 12 1035.0R
COVE POINT MD    0700   42     130/  7/  9 1034.0S
SOLOMONS ISLAND  0700      51                N/A
BISHOPS HEAD MD  0700   42 52   50/  7/  9 1033.7R
PINEY POINT MD   0700           70/  4/  4   N/A
POTOMAC MD       0700   45      90/ 12/ 14 1033.0S
CAMBRIDGE MD     0700   41 55   40/  4/  6 1033.9R
LEWISETTA VA     0700   45 51  100/ 12/ 14 1033.7R
RAPPAHANNOCK LGT 0700           40/ 12/ 14 1033.5F
STINGRAY PT      0700   44      90/ 12/ 16 1033.1F
YORK RVR RNG VA  0700   44      80/ 14/ 17 1032.1F
YORKTOWN VA      0700   45 55   60/ 13/ 16 1032.7F
JAMESTOWN VA     0700   40      50/  4/  4   N/A
DOMINION TERM VA 0700   44      50/  5/  9 1032.6S
KIPTOPEKE VA     0700      54   40/  4/ 10   N/A
CHES BAY BRIDGE  0700   44 51   40/ 18/ 21 1032.2R
CAPE HENRY VA    0700           50/ 17/ 20   N/A
CHESAPEAKE LGHT  0600   43      60/ 20/ 22 1032.6F
WILLOUBY STN VA  0700   44      60/ 14/ 16 1031.6F
S CRANEY ISL VA  0700           30/ 13/ 16 1032.5F
CAPE HENRY BUOY  0700      45                N/A     5/11   2/11
1ST LANDING BUOY 0700      46                N/A     5/10   3/10
64NM E OF VA BCH 0700   48      20/ 23/ 27 1029.7F  10/ 8   5/10
DUCK PIER NC     0700   45 47   20/ 22/ 26 1029.8F
44100 DUCK FRF   0700      47                N/A     7/11   2/11
44056 DUCK FRF   0700      47                N/A     6/ 8   2/11
OREGON INLET NC  0700   45 50   10/ 15/ 22 1029.6F
HATTERAS NC      0700   49 57   10/ 12/ 23 1029.0S
CAPE LOOKOUT NC  0700   47      20/ 20/ 24 1028.8F
FRYING PAN SHLS  0700   53 62   50/ 23/ 27 1026.9F   8/ 6   2/12
$$



USA.gov is the U.S. government's official web portal to all federal, state and local government web resources and services.